,,Stat6,,Stat2,,Stat8,,Stat9,,Stat10,,Wind1,,Wind1,
time,status,PA1M_AVG,status,PR1M_SUM,status,RH1M_AVG,status,SR1M_AVG,status,TA1M_AVG,status,W1dAve1m,status,W1sAve1m,
2004-02-29, 00:00:00,VALID,917.596,VALID,0,VALID,96.5669,VALID,-0.0679233,VALID,19.9949,VALID,130,VALID,0.395008,
2004-02-29, 00:01:00,VALID,917.617,VALID,0,VALID,96.6432,VALID,-0.0679233,VALID,19.9854,VALID,153,VALID,0.651344,
2004-02-29, 00:02:00,VALID,917.606,VALID,0,VALID,96.6763,VALID,-0.0849042,VALID,19.9661,VALID,167,VALID,0.440476,
2004-02-29, 00:03:00,VALID,917.616,VALID,0,VALID,96.6699,VALID,-0.0679233,VALID,19.9497,VALID,195,VALID,0.652158,
2004-02-29, 00:04:00,VALID,917.623,VALID,0,VALID,96.7462,VALID,-0.0849042,VALID,19.93,VALID,171,VALID,0.663491,
2004-02-29, 00:05:00,VALID,917.618,VALID,0,VALID,96.8696,VALID,-0.0849042,VALID,19.9442,VALID,163,VALID,0.622638,
2004-02-29, 00:06:00,VALID,917.619,VALID,0,VALID,96.8403,VALID,-0.0679233,VALID,19.9179,VALID,172,VALID,0.920015,
2004-02-29, 00:07:00,VALID,917.627,VALID,0,VALID,96.9497,VALID,-0.0679233,VALID,19.9015,VALID,157,VALID,0.973505,
2004-02-29, 00:08:00,VALID,917.615,VALID,0,VALID,97.0514,VALID,-0.0849042,VALID,19.8948,VALID,148,VALID,0.834517,
2004-02-29, 00:09:00,VALID,917.606,VALID,0,VALID,97.0845,VALID,-0.0849042,VALID,19.888,VALID,134,VALID,1.25707,
2004-02-29, 00:10:00,VALID,917.601,VALID,0,VALID,97.1201,VALID,-0.0679233,VALID,19.898,VALID,159,VALID,1.19389,
2004-02-29, 00:11:00,VALID,917.584,VALID,0,VALID,97.0501,VALID,-0.0849042,VALID,19.8918,VALID,154,VALID,0.495075,
2004-02-29, 00:12:00,VALID,917.581,VALID,0,VALID,97.129,VALID,-0.0339617,VALID,19.8848,VALID,145,VALID,0.591463,
2004-02-29, 00:13:00,VALID,917.554,VALID,0,VALID,97.2345,VALID,-0.0849042,VALID,19.8851,VALID,133,VALID,1.41543,
2004-02-29, 00:14:00,VALID,917.534,VALID,0,VALID,97.0959,VALID,-0.0849042,VALID,19.8913,VALID,120,VALID,1.17442,
2004-02-29, 00:15:00,VALID,917.521,VALID,0,VALID,96.9395,VALID,0,VALID,19.8836,VALID,127,VALID,0.759028,
2004-02-29, 00:16:00,VALID,917.499,VALID,0,VALID,97.045,VALID,0.0339617,VALID,19.8709,VALID,116,VALID,0.81978,
2004-02-29, 00:17:00,VALID,917.496,VALID,0,VALID,96.9891,VALID,0,VALID,19.861,VALID,56,VALID,0.705078,
2004-02-29, 00:18:00,VALID,917.487,VALID,0,VALID,97.1722,VALID,0,VALID,19.8383,VALID,113,VALID,0.807106,
2004-02-29, 00:19:00,VALID,917.488,VALID,0,VALID,97.1773,VALID,0.0169808,VALID,19.8547,VALID,124,VALID,0.448289,
2004-02-29, 00:20:00,VALID,917.484,VALID,0,VALID,97.0158,VALID,0.0169808,VALID,19.8383,VALID,58,VALID,0.517485,
2004-02-29, 00:21:00,VALID,917.483,VALID,0,VALID,97.0425,VALID,0.0339617,VALID,19.8453,VALID,46,VALID,0.341025,
2004-02-29, 00:22:00,VALID,917.462,VALID,0,VALID,97.0171,VALID,0.0169808,VALID,19.819,VALID,50,VALID,0.190104,
2004-02-29, 00:23:00,VALID,917.445,VALID,0,VALID,97.0247,VALID,0.0169808,VALID,19.8257,VALID,52,VALID,0.213663,
2004-02-29, 00:24:00,VALID,917.434,VALID,0,VALID,97.0972,VALID,0.0339617,VALID,19.8123,VALID,90,VALID,0.221128,
2004-02-29, 00:25:00,VALID,917.416,VALID,0,VALID,97.1188,VALID,0,VALID,19.8225,VALID,114,VALID,0.416016,
2004-02-29, 00:26:00,VALID,917.403,VALID,0,VALID,97.0959,VALID,0.0169808,VALID,19.8254,VALID,133,VALID,0.322917,
2004-02-29, 00:27:00,VALID,917.398,VALID,0,VALID,96.923,VALID,0,VALID,19.8192,VALID,137,VALID,0.160528,
2004-02-29, 00:28:00,VALID,917.369,VALID,0,VALID,96.9548,VALID,0.0339617,VALID,19.7996,VALID,137,VALID,0.21513,
2004-02-29, 00:29:00,VALID,917.36,VALID,0,VALID,97.1061,VALID,0.0169808,VALID,19.7936,VALID,125,VALID,0.441311,
2004-02-29, 00:30:00,VALID,917.349,VALID,0,VALID,97.0171,VALID,0.0169808,VALID,19.7775,VALID,132,VALID,0.484193,
2004-02-29, 00:31:00,VALID,917.331,VALID,0,VALID,96.9726,VALID,0.0339617,VALID,19.739,VALID,127,VALID,0.599382,
2004-02-29, 00:32:00,VALID,917.31,VALID,0,VALID,97.0094,VALID,0,VALID,19.6801,VALID,142,VALID,0.640253,
2004-02-29, 00:33:00,VALID,917.295,VALID,0,VALID,97.3426,VALID,0.0169808,VALID,19.6511,VALID,140,VALID,0.589472,
2004-02-29, 00:34:00,VALID,917.274,VALID,0,VALID,97.4736,VALID,0.0339617,VALID,19.6356,VALID,133,VALID,0.54524,
2004-02-29, 00:35:00,VALID,917.261,VALID,0,VALID,97.5372,VALID,0,VALID,19.6292,VALID,131,VALID,0.391533,
2004-02-29, 00:36:00,VALID,917.253,VALID,0,VALID,97.3947,VALID,0.0169808,VALID,19.5929,VALID,120,VALID,0.410633,
2004-02-29, 00:37:00,VALID,917.256,VALID,0,VALID,97.6529,VALID,0,VALID,19.5668,VALID,115,VALID,0.449128,
2004-02-29, 00:38:00,VALID,917.249,VALID,0,VALID,97.8945,VALID,0,VALID,19.5937,VALID,85,VALID,0.573611,
2004-02-29, 00:39:00,VALID,917.241,VALID,0,VALID,97.9237,VALID,0,VALID,19.6292,VALID,110,VALID,0.625558,
2004-02-29, 00:40:00,VALID,917.227,VALID,0,VALID,97.836,VALID,0,VALID,19.6381,VALID,142,VALID,0.728743,
2004-02-29, 00:41:00,VALID,917.219,VALID,0,VALID,97.7317,VALID,0,VALID,19.6645,VALID,135,VALID,1.20512,
2004-02-29, 00:42:00,VALID,917.221,VALID,0,VALID,97.5677,VALID,0,VALID,19.7032,VALID,148,VALID,0.607013,
2004-02-29, 00:43:00,VALID,917.209,VALID,0,VALID,97.3286,VALID,0.0169808,VALID,19.7263,VALID,163,VALID,0.510538,
2004-02-29, 00:44:00,VALID,917.199,VALID,0,VALID,97.2371,VALID,0.0169808,VALID,19.7094,VALID,179,VALID,0.713542,
2004-02-29, 00:45:00,VALID,917.185,VALID,0,VALID,97.2587,VALID,0,VALID,19.7166,VALID,175,VALID,0.972656,
2004-02-29, 00:46:00,VALID,917.167,VALID,0,VALID,97.2193,VALID,0,VALID,19.7263,VALID,161,VALID,0.602653,
2004-02-29, 00:47:00,VALID,917.154,VALID,0,VALID,97.0743,VALID,0,VALID,19.7109,VALID,147,VALID,0.659339,
2004-02-29, 00:48:00,VALID,917.146,VALID,0,VALID,97.176,VALID,0.0169808,VALID,19.6679,VALID,146,VALID,1.0483,
2004-02-29, 00:49:00,VALID,917.143,VALID,0,VALID,97.4481,VALID,-0.0339617,VALID,19.6587,VALID,136,VALID,1.14044,
2004-02-29, 00:50:00,VALID,917.129,VALID,0,VALID,97.3973,VALID,-0.0169808,VALID,19.6528,VALID,130,VALID,0.828646,
2004-02-29, 00:51:00,VALID,917.119,VALID,0,VALID,97.5244,VALID,0,VALID,19.6195,VALID,125,VALID,0.99314,
2004-02-29, 00:52:00,VALID,917.113,VALID,0,VALID,97.3324,VALID,0.0169808,VALID,19.6004,VALID,79,VALID,0.823171,
2004-02-29, 00:53:00,VALID,917.101,VALID,0,VALID,97.6122,VALID,0,VALID,19.5748,VALID,107,VALID,0.758557,
2004-02-29, 00:54:00,VALID,917.089,VALID,0,VALID,97.6618,VALID,0,VALID,19.5579,VALID,99,VALID,0.922433,
2004-02-29, 00:55:00,VALID,917.072,VALID,0,VALID,97.7444,VALID,0.0169808,VALID,19.5418,VALID,101,VALID,1.19345,
2004-02-29, 00:56:00,VALID,917.067,VALID,0,VALID,97.9733,VALID,0,VALID,19.5711,VALID,103,VALID,1.34737,
2004-02-29, 00:57:00,VALID,917.063,VALID,0,VALID,97.864,VALID,0,VALID,19.6006,VALID,94,VALID,0.991461,
2004-02-29, 00:58:00,VALID,917.058,VALID,0,VALID,97.7673,VALID,-0.0169808,VALID,19.62,VALID,108,VALID,1.29082,
2004-02-29, 00:59:00,VALID,917.059,VALID,0,VALID,97.7355,VALID,0.0169808,VALID,19.6555,VALID,110,VALID,1.04488,
2004-02-29, 01:00:00,VALID,917.051,VALID,0,VALID,97.5867,VALID,0.0169808,VALID,19.6617,VALID,124,VALID,1.25152,
2004-02-29, 01:01:00,VALID,917.065,VALID,0,VALID,97.4977,VALID,-0.0169808,VALID,19.6555,VALID,115,VALID,0.947621,
2004-02-29, 01:02:00,VALID,917.064,VALID,0,VALID,97.4278,VALID,0,VALID,19.6491,VALID,119,VALID,0.689708,
2004-02-29, 01:03:00,VALID,917.077,VALID,0,VALID,97.6046,VALID,0,VALID,19.6587,VALID,132,VALID,1.30313,
2004-02-29, 01:04:00,VALID,917.087,VALID,0,VALID,97.5702,VALID,-0.0169808,VALID,19.6977,VALID,119,VALID,0.671181,
2004-02-29, 01:05:00,VALID,917.09,VALID,0,VALID,97.4113,VALID,0,VALID,19.7136,VALID,137,VALID,0.42832,
2004-02-29, 01:06:00,VALID,917.104,VALID,0,VALID,97.3795,VALID,0,VALID,19.7199,VALID,139,VALID,0.547656,
2004-02-29, 01:07:00,VALID,917.093,VALID,0,VALID,97.2167,VALID,0,VALID,19.7067,VALID,115,VALID,0.0365854,
2004-02-29, 01:08:00,VALID,917.086,VALID,0,VALID,97.2917,VALID,-0.0169808,VALID,19.7069,VALID,116,VALID,0.172619,
2004-02-29, 01:09:00,VALID,917.057,VALID,0,VALID,97.3896,VALID,0.0169808,VALID,19.7037,VALID,116,VALID,0.265625,
2004-02-29, 01:10:00,VALID,917.038,VALID,0,VALID,97.471,VALID,0,VALID,19.6846,VALID,151,VALID,1.05396,
2004-02-29, 01:11:00,VALID,917.034,VALID,0,VALID,97.5702,VALID,-0.0169808,VALID,19.6816,VALID,151,VALID,0.752046,
2004-02-29, 01:12:00,VALID,917,VALID,0,VALID,97.6185,VALID,0,VALID,19.662,VALID,152,VALID,0.948117,
2004-02-29, 01:13:00,VALID,916.994,VALID,0,VALID,97.677,VALID,0,VALID,19.6488,VALID,153,VALID,0.307292,
2004-02-29, 01:14:00,VALID,916.978,VALID,0,VALID,97.5995,VALID,0.0169808,VALID,19.6329,VALID,114,VALID,0.525868,
2004-02-29, 01:15:00,VALID,916.956,VALID,0,VALID,97.6529,VALID,-0.101885,VALID,19.6086,VALID,140,VALID,0.928199,
2004-02-29, 01:16:00,VALID,916.95,VALID,0,VALID,97.7597,VALID,-0.101885,VALID,19.6026,VALID,147,VALID,0.811047,
2004-02-29, 01:17:00,VALID,916.94,VALID,0,VALID,97.8233,VALID,-0.0849042,VALID,19.6021,VALID,152,VALID,0.726563,
2004-02-29, 01:18:00,VALID,916.929,VALID,0,VALID,97.8919,VALID,-0.0849042,VALID,19.6115,VALID,166,VALID,1.23652,
2004-02-29, 01:19:00,VALID,916.92,VALID,0,VALID,97.8334,VALID,-0.101885,VALID,19.6309,VALID,173,VALID,0.720353,
2004-02-29, 01:20:00,VALID,916.91,VALID,0,VALID,97.78,VALID,-0.118866,VALID,19.6441,VALID,173,VALID,0.558771,
2004-02-29, 01:21:00,VALID,916.904,VALID,0,VALID,97.7203,VALID,-0.101885,VALID,19.6341,VALID,168,VALID,0.754278,
2004-02-29, 01:22:00,VALID,916.897,VALID,0,VALID,97.7482,VALID,-0.101885,VALID,19.6115,VALID,157,VALID,0.658156,
2004-02-29, 01:23:00,VALID,916.88,VALID,0,VALID,97.9123,VALID,-0.101885,VALID,19.6274,VALID,168,VALID,0.520312,
2004-02-29, 01:24:00,VALID,916.883,VALID,0,VALID,97.691,VALID,-0.101885,VALID,19.6473,VALID,126,VALID,0.625558,
2004-02-29, 01:25:00,VALID,916.858,VALID,0,VALID,97.6134,VALID,-0.101885,VALID,19.6441,VALID,127,VALID,1.17094,
2004-02-29, 01:26:00,VALID,916.86,VALID,0,VALID,97.5333,VALID,-0.0849042,VALID,19.6535,VALID,135,VALID,0.89335,
2004-02-29, 01:27:00,VALID,916.828,VALID,0,VALID,97.4227,VALID,-0.118866,VALID,19.66,VALID,142,VALID,0.375679,
2004-02-29, 01:28:00,VALID,916.834,VALID,0,VALID,97.3451,VALID,-0.135847,VALID,19.6535,VALID,145,VALID,0.582465,
2004-02-29, 01:29:00,VALID,916.81,VALID,0,VALID,97.4596,VALID,-0.118866,VALID,19.6538,VALID,150,VALID,0.787348,
2004-02-29, 01:30:00,VALID,916.804,VALID,0,VALID,97.6096,VALID,0.0169808,VALID,19.6749,VALID,138,VALID,0.723437,
2004-02-29, 01:31:00,VALID,916.784,VALID,0,VALID,97.4698,VALID,0,VALID,19.6975,VALID,166,VALID,0.516768,
2004-02-29, 01:32:00,VALID,916.769,VALID,0,VALID,97.4799,VALID,-0.0169808,VALID,19.7132,VALID,128,VALID,0.941134,
2004-02-29, 01:33:00,VALID,916.758,VALID,0,VALID,97.3273,VALID,0,VALID,19.7685,VALID,196,VALID,0.631037,
2004-02-29, 01:34:00,VALID,916.752,VALID,0,VALID,97.0171,VALID,-0.0169808,VALID,19.7976,VALID,114,VALID,0.209484,
2004-02-29, 01:35:00,VALID,916.763,VALID,0,VALID,96.8365,VALID,0,VALID,19.8033,VALID,137,VALID,0.221289,
2004-02-29, 01:36:00,VALID,916.754,VALID,0,VALID,96.7844,VALID,-0.0169808,VALID,19.8205,VALID,137,VALID,0.603993,
2004-02-29, 01:37:00,VALID,916.757,VALID,0,VALID,96.6826,VALID,0,VALID,19.8299,VALID,165,VALID,0.555903,
2004-02-29, 01:38:00,VALID,916.774,VALID,0,VALID,96.7246,VALID,0,VALID,19.8202,VALID,175,VALID,0.0605945,
2004-02-29, 01:39:00,VALID,916.77,VALID,0,VALID,96.6508,VALID,-0.0169808,VALID,19.8162,VALID,176,VALID,0.326079,
2004-02-29, 01:40:00,VALID,916.771,VALID,0,VALID,96.4906,VALID,-0.0169808,VALID,19.8105,VALID,22,VALID,0.352706,
2004-02-29, 01:41:00,VALID,916.758,VALID,0,VALID,96.2706,VALID,-0.0339617,VALID,19.7656,VALID,22,VALID,0.202753,
2004-02-29, 01:42:00,VALID,916.764,VALID,0,VALID,96.427,VALID,0,VALID,19.733,VALID,22,VALID,0.116824,
2004-02-29, 01:43:00,VALID,916.762,VALID,0,VALID,96.661,VALID,-0.0169808,VALID,19.7204,VALID,22,VALID,0,
2004-02-29, 01:44:00,VALID,916.767,VALID,0,VALID,96.8301,VALID,0,VALID,19.7129,VALID,22,VALID,0,
2004-02-29, 01:45:00,VALID,916.765,VALID,0,VALID,96.9153,VALID,-0.101885,VALID,19.7179,VALID,61,VALID,0.366997,
2004-02-29, 01:46:00,VALID,916.767,VALID,0,VALID,97.0489,VALID,-0.0679233,VALID,19.734,VALID,169,VALID,0.462984,
2004-02-29, 01:47:00,VALID,916.773,VALID,0,VALID,97.0387,VALID,-0.101885,VALID,19.7372,VALID,169,VALID,0.170945,
2004-02-29, 01:48:00,VALID,916.766,VALID,0,VALID,96.7907,VALID,-0.0849042,VALID,19.7308,VALID,169,VALID,0,
2004-02-29, 01:49:00,VALID,916.769,VALID,0,VALID,96.422,VALID,-0.0509425,VALID,19.6724,VALID,169,VALID,0,
2004-02-29, 01:50:00,VALID,916.756,VALID,0,VALID,96.6369,VALID,-0.0849042,VALID,19.6466,VALID,169,VALID,0,
2004-02-29, 01:51:00,VALID,916.749,VALID,0,VALID,96.8416,VALID,-0.0679233,VALID,19.6337,VALID,169,VALID,0.0194444,
2004-02-29, 01:52:00,VALID,916.749,VALID,0,VALID,96.998,VALID,-0.0849042,VALID,19.6309,VALID,153,VALID,0.363181,
2004-02-29, 01:53:00,VALID,916.758,VALID,0,VALID,97.087,VALID,-0.0849042,VALID,19.6113,VALID,151,VALID,0.404861,
2004-02-29, 01:54:00,VALID,916.76,VALID,0,VALID,97.2549,VALID,-0.101885,VALID,19.6048,VALID,151,VALID,0.366797,
2004-02-29, 01:55:00,VALID,916.771,VALID,0,VALID,97.2688,VALID,-0.0849042,VALID,19.6053,VALID,151,VALID,0.250381,
2004-02-29, 01:56:00,VALID,916.781,VALID,0,VALID,97.1163,VALID,-0.0849042,VALID,19.5656,VALID,151,VALID,0,
2004-02-29, 01:57:00,VALID,916.788,VALID,0,VALID,97.1811,VALID,-0.0679233,VALID,19.5432,VALID,151,VALID,0.0172602,
2004-02-29, 01:58:00,VALID,916.804,VALID,0,VALID,97.2612,VALID,-0.0849042,VALID,19.5142,VALID,151,VALID,0,
2004-02-29, 01:59:00,VALID,916.797,VALID,0,VALID,97.307,VALID,-0.0849042,VALID,19.5012,VALID,151,VALID,0.00353423,
2004-02-29, 02:00:00,VALID,916.777,VALID,0,VALID,97.4494,VALID,0.0509425,VALID,19.4804,VALID,151,VALID,0.162016,
2004-02-29, 02:01:00,VALID,916.762,VALID,0,VALID,97.5359,VALID,0.0509425,VALID,19.4576,VALID,148,VALID,0.12862,
2004-02-29, 02:02:00,VALID,916.733,VALID,0,VALID,97.5931,VALID,0.0509425,VALID,19.4546,VALID,133,VALID,0.0735518,
2004-02-29, 02:03:00,VALID,916.7,VALID,0,VALID,97.368,VALID,0.0169808,VALID,19.4004,VALID,133,VALID,0.0194404,
2004-02-29, 02:04:00,VALID,916.682,VALID,0,VALID,97.6961,VALID,0,VALID,19.3902,VALID,133,VALID,0.0827753,
2004-02-29, 02:05:00,VALID,916.67,VALID,0,VALID,97.9873,VALID,0,VALID,19.3962,VALID,130,VALID,0.306974,
2004-02-29, 02:06:00,VALID,916.668,VALID,0,VALID,98.0636,VALID,0,VALID,19.4161,VALID,125,VALID,0.297053,
2004-02-29, 02:07:00,VALID,916.67,VALID,0,VALID,97.9555,VALID,0.0169808,VALID,19.4064,VALID,125,VALID,0.160866,
2004-02-29, 02:08:00,VALID,916.67,VALID,0,VALID,98.1628,VALID,0.0169808,VALID,19.4133,VALID,122,VALID,0.261541,
2004-02-29, 02:09:00,VALID,916.672,VALID,0,VALID,98.3128,VALID,0,VALID,19.4292,VALID,121,VALID,0.464063,
2004-02-29, 02:10:00,VALID,916.651,VALID,0,VALID,98.4095,VALID,0,VALID,19.4446,VALID,121,VALID,0.502858,
2004-02-29, 02:11:00,VALID,916.644,VALID,0,VALID,98.3675,VALID,0,VALID,19.4744,VALID,121,VALID,0.612165,
2004-02-29, 02:12:00,VALID,916.624,VALID,0,VALID,98.2989,VALID,0,VALID,19.4906,VALID,120,VALID,0.468387,
2004-02-29, 02:13:00,VALID,916.617,VALID,0,VALID,98.2467,VALID,0,VALID,19.5171,VALID,120,VALID,0.277344,
2004-02-29, 02:14:00,VALID,916.613,VALID,0,VALID,98.1208,VALID,0,VALID,19.5067,VALID,128,VALID,0.50093,
2004-02-29, 02:15:00,VALID,916.607,VALID,0,VALID,98.0369,VALID,-0.101885,VALID,19.5082,VALID,137,VALID,0.598189,
2004-02-29, 02:16:00,VALID,916.611,VALID,0,VALID,98.0496,VALID,-0.0849042,VALID,19.5151,VALID,142,VALID,0.323153,
2004-02-29, 02:17:00,VALID,916.603,VALID,0,VALID,97.9657,VALID,-0.101885,VALID,19.5045,VALID,142,VALID,0.104725,
2004-02-29, 02:18:00,VALID,916.615,VALID,0,VALID,97.9237,VALID,-0.0849042,VALID,19.5082,VALID,134,VALID,0.441406,
2004-02-29, 02:19:00,VALID,916.627,VALID,0,VALID,97.8818,VALID,-0.101885,VALID,19.4759,VALID,150,VALID,0.487153,
2004-02-29, 02:20:00,VALID,916.635,VALID,0,VALID,98.1844,VALID,-0.101885,VALID,19.5012,VALID,142,VALID,0.637463,
2004-02-29, 02:21:00,VALID,916.643,VALID,0,VALID,98.1539,VALID,-0.101885,VALID,19.5306,VALID,145,VALID,0.102307,
2004-02-29, 02:22:00,VALID,916.647,VALID,0,VALID,97.9733,VALID,-0.0849042,VALID,19.5169,VALID,145,VALID,0.15718,
2004-02-29, 02:23:00,VALID,916.643,VALID,0,VALID,97.9314,VALID,-0.101885,VALID,19.5181,VALID,145,VALID,0.205729,
2004-02-29, 02:24:00,VALID,916.652,VALID,0,VALID,98.0178,VALID,-0.101885,VALID,19.5114,VALID,145,VALID,0.163707,
2004-02-29, 02:25:00,VALID,916.638,VALID,0,VALID,98.0064,VALID,-0.101885,VALID,19.5017,VALID,145,VALID,0,
2004-02-29, 02:26:00,VALID,916.63,VALID,0.2,VALID,98.0102,VALID,-0.0849042,VALID,19.5114,VALID,145,VALID,0.00090843,
2004-02-29, 02:27:00,VALID,916.634,VALID,0,VALID,98.0242,VALID,-0.0849042,VALID,19.4985,VALID,145,VALID,0,
2004-02-29, 02:28:00,VALID,916.644,VALID,0,VALID,97.9619,VALID,-0.0849042,VALID,19.4856,VALID,145,VALID,0,
2004-02-29, 02:29:00,VALID,916.633,VALID,0,VALID,97.9339,VALID,-0.101885,VALID,19.4595,VALID,145,VALID,0.208984,
2004-02-29, 02:30:00,VALID,916.643,VALID,0,VALID,98.0038,VALID,0.0339617,VALID,19.4516,VALID,150,VALID,0.407948,
2004-02-29, 02:31:00,VALID,916.641,VALID,0,VALID,98.0916,VALID,0.0169808,VALID,19.4588,VALID,159,VALID,0.509448,
2004-02-29, 02:32:00,VALID,916.643,VALID,0,VALID,98.1552,VALID,0.0169808,VALID,19.4486,VALID,166,VALID,0.533794,
2004-02-29, 02:33:00,VALID,916.63,VALID,0,VALID,98.1628,VALID,0.0169808,VALID,19.4357,VALID,166,VALID,0.331659,
2004-02-29, 02:34:00,VALID,916.645,VALID,0,VALID,98.1348,VALID,0,VALID,19.4257,VALID,166,VALID,0.237351,
2004-02-29, 02:35:00,VALID,916.645,VALID,0,VALID,98.07,VALID,0,VALID,19.4064,VALID,166,VALID,0.0171494,
2004-02-29, 02:36:00,VALID,916.65,VALID,0,VALID,98.0483,VALID,0,VALID,19.3746,VALID,166,VALID,0.0125,
2004-02-29, 02:37:00,VALID,916.658,VALID,0,VALID,98.0344,VALID,0,VALID,19.3388,VALID,156,VALID,0.317951,
2004-02-29, 02:38:00,VALID,916.64,VALID,0,VALID,97.967,VALID,0.0169808,VALID,19.3068,VALID,156,VALID,0.255208,
2004-02-29, 02:39:00,VALID,916.648,VALID,0,VALID,97.7559,VALID,0.0169808,VALID,19.2484,VALID,156,VALID,0.147917,
2004-02-29, 02:40:00,VALID,916.647,VALID,0,VALID,97.8958,VALID,0.0339617,VALID,19.2029,VALID,156,VALID,0.176639,
2004-02-29, 02:41:00,VALID,916.623,VALID,0,VALID,98.3294,VALID,0,VALID,19.2034,VALID,155,VALID,0.26734,
2004-02-29, 02:42:00,VALID,916.635,VALID,0,VALID,98.5239,VALID,0.0169808,VALID,19.2064,VALID,154,VALID,0.420346,
2004-02-29, 02:43:00,VALID,916.628,VALID,0,VALID,98.4731,VALID,0.0169808,VALID,19.1605,VALID,153,VALID,0.628634,
2004-02-29, 02:44:00,VALID,916.625,VALID,0,VALID,98.7147,VALID,0.0169808,VALID,19.1674,VALID,152,VALID,0.681445,
2004-02-29, 02:45:00,VALID,916.637,VALID,0,VALID,99.0364,VALID,0,VALID,19.2004,VALID,152,VALID,0.344122,
2004-02-29, 02:46:00,VALID,916.659,VALID,0,VALID,99.1496,VALID,0,VALID,19.233,VALID,152,VALID,0.183694,
2004-02-29, 02:47:00,VALID,916.665,VALID,0,VALID,99.1966,VALID,0.0339617,VALID,19.2452,VALID,154,VALID,0.2498,
2004-02-29, 02:48:00,VALID,916.689,VALID,0,VALID,99.2042,VALID,0.0169808,VALID,19.2715,VALID,178,VALID,0.297965,
2004-02-29, 02:49:00,VALID,916.695,VALID,0,VALID,99.222,VALID,0,VALID,19.2909,VALID,178,VALID,0.152699,
2004-02-29, 02:50:00,VALID,916.712,VALID,0,VALID,99.2297,VALID,0,VALID,19.3102,VALID,178,VALID,0.302827,
2004-02-29, 02:51:00,VALID,916.712,VALID,0,VALID,99.1597,VALID,0,VALID,19.3065,VALID,178,VALID,0.286204,
2004-02-29, 02:52:00,VALID,916.711,VALID,0,VALID,99.1,VALID,0,VALID,19.3035,VALID,178,VALID,0.244234,
2004-02-29, 02:53:00,VALID,916.722,VALID,0,VALID,99.0491,VALID,0.0339617,VALID,19.3127,VALID,178,VALID,0.0537109,
2004-02-29, 02:54:00,VALID,916.711,VALID,0,VALID,98.7363,VALID,0,VALID,19.2839,VALID,178,VALID,0,
2004-02-29, 02:55:00,VALID,916.725,VALID,0,VALID,98.571,VALID,0,VALID,19.2387,VALID,178,VALID,0,
2004-02-29, 02:56:00,VALID,916.726,VALID,0,VALID,98.3459,VALID,-0.0169808,VALID,19.2069,VALID,178,VALID,0,
2004-02-29, 02:57:00,VALID,916.718,VALID,0,VALID,97.8462,VALID,0,VALID,19.1006,VALID,178,VALID,0,
2004-02-29, 02:58:00,VALID,916.715,VALID,0,VALID,97.6859,VALID,0,VALID,18.9968,VALID,156,VALID,0.171289,
2004-02-29, 02:59:00,VALID,916.726,VALID,0,VALID,98.0356,VALID,0,VALID,18.9486,VALID,91,VALID,0.390447,
2004-02-29, 03:00:00,VALID,916.731,VALID,0,VALID,98.3116,VALID,0.0339617,VALID,18.9195,VALID,77,VALID,0.625372,
2004-02-29, 03:01:00,VALID,916.721,VALID,0,VALID,98.6778,VALID,0.0169808,VALID,18.9128,VALID,74,VALID,0.832589,
2004-02-29, 03:02:00,VALID,916.722,VALID,0,VALID,99.2411,VALID,0.0169808,VALID,18.958,VALID,65,VALID,0.985795,
2004-02-29, 03:03:00,VALID,916.716,VALID,0,VALID,99.4585,VALID,0,VALID,19.0134,VALID,65,VALID,0.993945,
2004-02-29, 03:04:00,VALID,916.715,VALID,0,VALID,99.5514,VALID,0,VALID,19.0358,VALID,65,VALID,0.955031,
2004-02-29, 03:05:00,VALID,916.705,VALID,0,VALID,99.6226,VALID,0,VALID,19.0812,VALID,65,VALID,0.879724,
2004-02-29, 03:06:00,VALID,916.711,VALID,0,VALID,99.4102,VALID,0,VALID,19.0651,VALID,65,VALID,0.773793,
2004-02-29, 03:07:00,VALID,916.702,VALID,0,VALID,98.9194,VALID,0,VALID,18.9839,VALID,65,VALID,0.760938,
2004-02-29, 03:08:00,VALID,916.703,VALID,0,VALID,98.88,VALID,0,VALID,18.9126,VALID,63,VALID,0.81901,
2004-02-29, 03:09:00,VALID,916.685,VALID,0,VALID,99.2843,VALID,0.0169808,VALID,18.9588,VALID,62,VALID,0.748365,
2004-02-29, 03:10:00,VALID,916.687,VALID,0,VALID,99.704,VALID,0,VALID,19.0261,VALID,62,VALID,0.885045,
2004-02-29, 03:11:00,VALID,916.685,VALID,0,VALID,99.8731,VALID,-0.0169808,VALID,19.0872,VALID,68,VALID,0.727121,
2004-02-29, 03:12:00,VALID,916.692,VALID,0,VALID,99.9634,VALID,0,VALID,19.1515,VALID,78,VALID,0.703697,
2004-02-29, 03:13:00,VALID,916.692,VALID,0,VALID,99.9906,VALID,0,VALID,19.2064,VALID,78,VALID,0.781795,
2004-02-29, 03:14:00,VALID,916.693,VALID,0,VALID,99.9443,VALID,-0.0169808,VALID,19.2616,VALID,78,VALID,0.31141,
2004-02-29, 03:15:00,VALID,916.703,VALID,0,VALID,99.7663,VALID,-0.101885,VALID,19.2725,VALID,79,VALID,0.302507,
2004-02-29, 03:16:00,VALID,916.683,VALID,0,VALID,99.2843,VALID,-0.0849042,VALID,19.2506,VALID,106,VALID,0.62843,
2004-02-29, 03:17:00,VALID,916.702,VALID,0,VALID,99.0974,VALID,-0.101885,VALID,19.1885,VALID,113,VALID,0.678516,
2004-02-29, 03:18:00,VALID,916.698,VALID,0,VALID,99.2157,VALID,-0.101885,VALID,19.1823,VALID,132,VALID,0.870094,
2004-02-29, 03:19:00,VALID,916.681,VALID,0,VALID,99.2996,VALID,-0.101885,VALID,19.1828,VALID,131,VALID,0.908913,
2004-02-29, 03:20:00,VALID,916.674,VALID,0,VALID,99.4217,VALID,-0.118866,VALID,19.1959,VALID,126,VALID,0.78125,
2004-02-29, 03:21:00,VALID,916.668,VALID,0,VALID,99.4013,VALID,-0.0679233,VALID,19.2024,VALID,117,VALID,0.471475,
2004-02-29, 03:22:00,VALID,916.639,VALID,0,VALID,99.1966,VALID,-0.118866,VALID,19.1569,VALID,94,VALID,0.411914,
2004-02-29, 03:23:00,VALID,916.609,VALID,0,VALID,99.1648,VALID,-0.101885,VALID,19.1216,VALID,59,VALID,0.743253,
2004-02-29, 03:24:00,VALID,916.594,VALID,0,VALID,99.3657,VALID,-0.118866,VALID,19.1147,VALID,70,VALID,0.772507,
2004-02-29, 03:25:00,VALID,916.583,VALID,0,VALID,99.6824,VALID,-0.101885,VALID,19.1629,VALID,81,VALID,0.904948,
2004-02-29, 03:26:00,VALID,916.566,VALID,0,VALID,99.8413,VALID,-0.101885,VALID,19.218,VALID,87,VALID,0.87221,
2004-02-29, 03:27:00,VALID,916.55,VALID,0,VALID,99.8362,VALID,-0.0849042,VALID,19.263,VALID,79,VALID,0.681021,
2004-02-29, 03:28:00,VALID,916.552,VALID,0,VALID,99.7612,VALID,-0.101885,VALID,19.2859,VALID,78,VALID,0.601918,
2004-02-29, 03:29:00,VALID,916.545,VALID,0,VALID,99.5704,VALID,-0.101885,VALID,19.269,VALID,67,VALID,0.612153,
2004-02-29, 03:30:00,VALID,916.549,VALID,0,VALID,99.5704,VALID,0,VALID,19.2842,VALID,73,VALID,0.727564,
2004-02-29, 03:31:00,VALID,916.538,VALID,0,VALID,99.6862,VALID,0.0169808,VALID,19.3167,VALID,77,VALID,0.672075,
2004-02-29, 03:32:00,VALID,916.52,VALID,0,VALID,99.6951,VALID,0.0169808,VALID,19.3423,VALID,77,VALID,0.512305,
2004-02-29, 03:33:00,VALID,916.518,VALID,0,VALID,99.634,VALID,0.0169808,VALID,19.3681,VALID,77,VALID,0.25218,
2004-02-29, 03:34:00,VALID,916.509,VALID,0,VALID,99.545,VALID,0,VALID,19.3845,VALID,77,VALID,0.0382133,
2004-02-29, 03:35:00,VALID,916.496,VALID,0,VALID,99.4738,VALID,0,VALID,19.3778,VALID,77,VALID,0,
2004-02-29, 03:36:00,VALID,916.488,VALID,0,VALID,99.3937,VALID,0,VALID,19.3711,VALID,77,VALID,0,